Showing default

AISTECHSAT-2, 43768

Orbit data source: Space-Track

AISTECHSAT-2, 43768 is a payload satellite owned by AISTech (ES) in SSO that was launched on Mon, 03 Dec 2018 UTC via an FALCON 9 launch vehicle from the Air Force Western Test Range (AFWTR). Payload-class satellites include a variety of spacecraft equipped with specific instruments for various scientific and technological missions. These include communications satellites like Starlink; space stations such as the ISS; scientific satellites like the Hubble; Earth observation satellites from companies like Planet Labs, Umbra, and HawkEye 360; GPS; miniature CubeSats for education and research; and military/defense satellites.

Loading next visibility...
Identifier
43768, 2018-099L
Orbit
SSO
Country
Flag of ESES / SPN
Related business
Manufacturer
AISTech
Mission
Operational Commercial Communications
Bus & Motor
CUBESAT 6U, Unknown motor
Mass
10 kg wet, 10 kg dry
Launch date (UTC)
2018-12-03 (7 years ago)
Launch vehicle
FALCON 9
Launch site
Air Force Western Test Range (AFWTR)
Object type
Payload
Rocket body
Debris
Shape & HBR
Box + 3 Pan, 0.3 m
Radar Cross Section
0.054 m², Small (<0.1 m²)

Expand to show TLE details & history
Last TLE update: 15 hours ago

TLE from 15 hours ago
0 AISTECHSAT-2
1 43768U 18099L   26034.38087377  .00006358  00000-0  35504-3 0  9995
2 43768  97.4500  85.3493 0006004  55.7942 304.3858 15.13853306392021
Epoch: 2026-02-03T09:08Z
TLE epoch observation values (Epoch: 2026-02-03T09:08:27.493Z)
Latitude
-0.00003°
Longitude
174.67212°
Altitude
525.203 km
Speed
7.602 km/s
True Right ascension
05h 41m 23s
True Declination
0° 00' 00"
Sunlit
Object was in full shadow at epoch
Visualization orbit readout
Latitude
Unknown
Longitude
Unknown
Altitude
Unknown
Speed
Unknown
Apparent Right ascension
Unknown
Apparent Declination
Unknown
Sunlit
N/A
Visualization observer readout
Local Sidereal Time
02:03:56
Azimuth
Unknown
Elevation
Unknown
Doppler factor
Unknown
Orbital elements
Apogee altitude
525.58 km
Perigee altitude
517.295 km
Semi-major axis
6,899.575 km
Eccentricity
0.0006
Inclination
97.45°
RAAN
85.3493°
Arg. of periapsis
55.7942°
True anomaly
304.329°
Mean anomaly
304.3858°
Eccentric anomaly
304.3574°
Mean motion
3.78713 °/min
Orbital period
95.06 mins
BSTAR
0.00035504
Loading maneuver chart data...
Computing Atmospheric mass density...
Loading historical data...
Loading historical data...
Loading historical data...
Loading historical data...
Loading historical data...
Loading historical data...
Loading historical data...

Documentation

Showing up to 5 results
|